Simultaneous Nadir Overpasses (SNOs) Predictions

Prediction of SNOs between NOAA-21 and NOAA-19 Satellite Orbit:

Table of predicted SNOs for the next 14.0 days since TLE Epoch: 7/29/2023
Index Date (NOAA-21) Time (NOAA-21) Lat,Lon (NOAA-21) SZA (NOAA-21 ) Date (NOAA-19) Time (NOAA-19) Lat,Lon (NOAA-19) SZA (NOAA-19 ) Distance(km) Time Diff (sec)
1 08/05/2023 03:21:44 74.49, 117.12 57.87 08/05/2023 03:20:34 74.51, 115.35 58.05 52.62 70
2 08/05/2023 04:12:35 -74.82, -76.45 121.75 08/05/2023 04:11:28 -74.81, -76.55 121.73 3.37 67
3 08/05/2023 05:03:21 74.84, 90.80 58.29 08/05/2023 05:02:26 74.84, 90.80 58.31 0.06 55
4 08/05/2023 05:54:05 -74.83,-101.85 121.72 08/05/2023 05:53:26 -74.85,-101.92 121.68 3.13 39
5 08/05/2023 06:44:51 74.85, 65.40 58.32 08/05/2023 06:44:25 74.84, 65.30 58.32 3.25 26
6 08/05/2023 07:35:36 -74.88,-127.38 121.64 08/05/2023 07:35:24 -74.89,-127.28 121.63 3.23 12
7 08/05/2023 08:26:21 74.86, 40.00 58.35 08/05/2023 08:26:23 74.88, 39.94 58.37 3.17 2
8 08/05/2023 09:17:06 -74.89,-152.78 121.61 08/05/2023 09:17:23 -74.89,-152.78 121.61 0.17 17
9 08/05/2023 10:07:52 74.91, 14.47 58.43 08/05/2023 10:08:21 74.92, 14.58 58.42 3.27 29
10 08/05/2023 10:58:36 -74.90,-178.18 121.58 08/05/2023 10:59:22 -74.89,-178.28 121.60 3.12 46
11 08/05/2023 11:49:22 74.92, -10.93 58.46 08/05/2023 11:50:20 74.92, -10.93 58.44 0.26 58
12 08/05/2023 12:40:06 -74.91, 156.42 121.55 08/05/2023 12:41:20 -74.93, 156.36 121.54 3.12 74
13 08/05/2023 13:31:02 75.41, -37.73 59.05 08/05/2023 13:32:09 75.38, -34.98 58.81 77.12 67



Historial Predications of SNOs between NOAA-21 and NOAA-19
